Weather History for KYIP - January, 2014

Change the Weather History Date:

Tuesday, January 21, 2014

  Actual Average Record
Temperature  
Mean Temperature 7 °F -  
Max Temperature 14 °F 30 °F 49 °F (1974)
Min Temperature -2 °F 15 °F -19 °F (1984)
Degree Days  
Heating Degree Days 58    
Moisture  
Dew Point -5 °F    
Average Humidity 56    
Maximum Humidity 69    
Minimum Humidity 47    
Precipitation  
Precipitation 0.00 in - - ()
Sea Level Pressure  
Sea Level Pressure 30.17 in    
Wind  
Wind Speed 11 mph (NNW)    
Max Wind Speed 16 mph    
Max Gust Speed -    
Visibility 10 miles    
Events Snow    
Averages and records for this station are not official NWS values.
T = Trace of Precipitation, MM = Missing Value Source: NWS Daily Summary

Daily Weather History Graph

Daily Weather History Graph

Search for Another Location

Airport or City:

Trip Planner

Search our weather history database for the weather conditions in past years. The results will help you decide how hot, cold, wet, or windy it might be!

Date:

Astronomy

Jan. 21, 2014 Rise Set
Actual Time 7:56 AM EST 5:34 PM EST
Civil Twilight 7:26 AM EST 6:05 PM EST
Nautical Twilight 6:52 AM EST 6:39 PM EST
Astronomical Twilight 6:18 AM EST 7:12 PM EST
Moon 11:13 PM EST (1/21) 10:19 AM EST (1/21)
Length of Visible Light 10h 38m
Length of Day
9h 37m
Waning Gibbous, 75% of the Moon is Illuminated
Jan 21
Waning Gibbous
Jan 24
Last Quarter
Jan 30
New
Feb 6
First Quarter
Feb 14
Full

Hourly Weather History & Observations

Time (EST) Temp. Windchill Dew Point Humidity Pressure Visibility Wind Dir Wind Speed Gust Speed Precip Events Conditions
12:53 AM 14.0 °F 0.5 °F 3.9 °F 64% 30.06 in 8.0 mi North 11.5 mph - 0.00 in Snow Light Snow
1:53 AM 12.0 °F -2.0 °F -0.9 °F 56% 30.05 in 10.0 mi North 11.5 mph - 0.00 in   Overcast
2:53 AM 10.0 °F -7.1 °F -4.0 °F 53% 30.08 in 10.0 mi North 16.1 mph - N/A   Overcast
3:53 AM 10.0 °F -4.5 °F -4.0 °F 53% 30.10 in 10.0 mi North 11.5 mph - N/A   Overcast
4:53 AM 8.1 °F -5.3 °F -4.0 °F 58% 30.10 in 10.0 mi North 9.2 mph - N/A   Overcast
5:53 AM 7.0 °F -6.6 °F -5.1 °F 58% 30.11 in 10.0 mi North 9.2 mph - N/A   Mostly Cloudy
6:53 AM 6.1 °F -9.5 °F -6.0 °F 58% 30.12 in 10.0 mi North 11.5 mph - N/A   Scattered Clouds
7:53 AM 5.0 °F -10.0 °F -6.0 °F 61% 30.15 in 10.0 mi North 10.4 mph - N/A   Overcast
8:53 AM 5.0 °F -10.0 °F -7.1 °F 58% 30.17 in 10.0 mi North 10.4 mph - N/A   Mostly Cloudy
9:53 AM 6.1 °F -12.2 °F -6.0 °F 58% 30.18 in 10.0 mi North 16.1 mph - N/A   Mostly Cloudy
10:53 AM 9.0 °F -5.9 °F -4.0 °F 56% 30.19 in 10.0 mi North 11.5 mph - N/A   Clear
11:53 AM 10.9 °F -3.4 °F -2.0 °F 56% 30.19 in 10.0 mi NNW 11.5 mph - N/A   Partly Cloudy
12:53 PM 12.0 °F -2.0 °F -2.0 °F 53% 30.18 in 10.0 mi North 11.5 mph - N/A   Clear
1:53 PM 14.0 °F -0.8 °F -2.0 °F 49% 30.16 in 10.0 mi NNW 13.8 mph - N/A   Clear
2:53 PM 12.9 °F -2.2 °F -2.9 °F 49% 30.16 in 10.0 mi NNW 13.8 mph - N/A   Partly Cloudy
3:53 PM 12.9 °F -2.2 °F -4.0 °F 47% 30.18 in 10.0 mi NNW 13.8 mph - N/A   Clear
4:53 PM 10.9 °F -1.8 °F -5.1 °F 49% 30.19 in 10.0 mi NNW 9.2 mph - N/A   Clear
5:53 PM 8.1 °F -4.3 °F -8.0 °F 48% 30.22 in 10.0 mi NNW 8.1 mph - N/A   Clear
6:53 PM 7.0 °F -6.6 °F -9.0 °F 48% 30.23 in 10.0 mi NNW 9.2 mph - N/A   Clear
7:53 PM 3.0 °F -8.0 °F -9.0 °F 57% 30.23 in 10.0 mi NNW 5.8 mph - N/A   Clear
8:53 PM 1.0 °F -11.7 °F -9.9 °F 60% 30.23 in 10.0 mi NW 6.9 mph - N/A   Clear
9:53 PM 1.0 °F - -9.0 °F 63% 30.23 in 10.0 mi Calm Calm - N/A   Clear
10:53 PM -0.0 °F - -9.9 °F 63% 30.22 in 10.0 mi Calm Calm - N/A   Clear
11:53 PM -2.0 °F -10.1 °F -9.9 °F 69% 30.23 in 10.0 mi WNW 3.5 mph - N/A   Clear